EW5860 Weather Reports


time (UTC)temp
C
wind
direction
speed
KPH
gust
KPH
rain 1hr
cm
rain 24hr
cm
rain mn
cm
humidity
%
barometer
mb
20260905081508 20 250 0.0 0.0 0.00 0.13 0.00 97 1010.3
20260905080006 20 250 0.0 0.0 0.00 0.13 0.00 97 1010.3
20260905074511 20 250 0.0 0.0 0.00 0.13 0.00 98 1010.3
20260905073004 20 250 0.0 1.6 0.00 0.13 0.00 98 1010.2
20260905071504 20 150 0.0 0.0 0.00 0.13 0.00 98 1010.2
20260905070004 20 150 0.0 0.0 0.00 0.13 0.00 98 1010.2
20260905064502 20 150 0.0 0.0 0.00 0.13 0.00 98 1010.4
20260905063101 20 150 0.0 0.0 0.00 0.13 0.00 97 1010.5
20260905061622 20 150 0.0 0.0 0.00 0.13 0.00 97 1010.5
20260905060112 20 150 0.0 0.0 0.00 0.13 0.00 97 1010.6
20260905054556 20 150 0.0 0.0 0.00 0.13 0.00 97 1010.6
20260905053054 20 150 0.0 0.0 0.00 0.13 0.00 97 1010.7
20260905051551 20 150 0.0 0.0 0.00 0.13 0.00 96 1010.8
20260905050049 21 150 0.0 0.0 0.00 0.13 0.00 96 1010.9
20260905044547 21 138 0.0 1.6 0.10 0.13 0.00 96 1010.9
20260905043044 21 74 0.0 0.0 0.13 0.13 0.00 95 1011.0
20260905041541 22 74 0.0 0.0 0.13 0.13 0.00 94 1011.0
20260905040040 22 26 0.0 4.8 0.13 0.13 0.00 94 1011.2
20260905034547 22 73 0.0 3.2 0.00 0.13 0.00 95 1011.4
20260905033038 22 277 0.0 0.0 0.00 0.13 0.00 95 1011.3
20260905031538 22 277 0.0 0.0 0.00 0.13 0.00 95 1011.0
20260905030040 22 277 0.0 0.0 0.00 0.13 0.00 95 1010.9
20260905024537 22 277 0.0 0.0 0.00 0.13 0.00 95 1010.8
20260905023035 22 277 0.0 0.0 0.00 0.13 0.00 95 1010.7
20260905021536 22 277 0.0 0.0 0.00 0.13 0.00 94 1010.7
20260905020040 22 277 0.0 0.0 0.00 0.13 0.00 94 1010.7
20260905014538 23 277 0.0 0.0 0.00 0.13 0.00 94 1010.8
20260905013034 23 277 0.0 0.0 0.00 0.13 0.00 94 1010.6
20260905011541 23 277 0.0 0.0 0.00 0.13 0.00 93 1010.7
20260905010034 23 277 0.0 0.0 0.00 0.13 0.00 93 1010.7
20260905004539 23 277 0.0 0.0 0.00 0.13 0.00 93 1010.8
20260905003034 23 277 0.0 0.0 0.00 0.13 0.00 92 1010.6
20260905001546 23 277 0.0 0.0 0.00 0.13 0.00 92 1010.6
20260905000032 23 277 0.0 0.0 0.00 0.13 0.00 91 1010.5
20260904234538 24 277 0.0 0.0 0.00 0.13 0.00 89 1010.3
20260904233040 25 277 0.0 0.0 0.00 0.13 0.00 87 1010.2
20260904231538 25 277 0.0 1.6 0.00 0.13 0.00 83 1010.1
20260904230028 26 277 0.0 0.0 0.00 0.13 0.00 80 1010.3
20260904224528 26 277 0.0 0.0 0.00 0.13 0.00 77 1010.4
20260904223026 26 248 1.6 4.8 0.00 0.13 0.00 76 1010.4
20260904221526 26 209 0.0 3.2 0.00 0.13 0.00 76 1010.6
20260904220026 26 240 0.0 8.0 0.00 0.13 0.00 76 1010.7
20260904214525 27 224 0.0 3.2 0.00 0.13 0.00 77 1010.7
20260904213027 27 261 0.0 1.6 0.00 0.13 0.00 77 1010.9
20260904211524 27 261 0.0 1.6 0.00 0.13 0.00 75 1010.8
20260904210024 27 261 0.0 3.2 0.00 0.13 0.00 72 1010.9
20260904204523 27 267 0.0 8.0 0.00 0.13 0.00 69 1010.6
20260904203022 28 257 0.0 6.4 0.00 0.13 0.00 69 1010.5
20260904201521 28 240 1.6 12.9 0.00 0.13 0.00 66 1010.4
20260904200022 28 266 6.4 17.7 0.00 0.13 0.00 63 1010.8
20260904194520 28 258 1.6 17.7 0.00 0.13 0.00 63 1011.1
20260904193018 28 178 6.4 17.7 0.00 0.13 0.00 64 1011.4
20260904191518 28 234 6.4 20.9 0.00 0.13 0.00 63 1011.5
20260904190024 28 245 4.8 16.1 0.00 0.13 0.00 65 1011.7
20260904184517 28 250 3.2 22.5 0.00 0.13 0.00 66 1011.8
20260904183023 28 14 4.8 24.1 0.00 0.13 0.00 65 1012.0
20260904181527 28 279 3.2 17.7 0.00 0.13 0.00 67 1012.0
20260904180015 28 258 4.8 17.7 0.00 0.13 0.00 65 1012.1
20260904174515 28 301 4.8 19.3 0.00 0.13 0.00 66 1012.2
20260904173033 28 121 1.6 17.7 0.00 0.13 0.00 69 1012.0
20260904171514 28 262 4.8 12.9 0.00 0.13 0.00 69 1012.1
20260904170012 28 273 3.2 16.1 0.00 0.13 0.00 67 1012.2
20260904164511 28 242 0.0 16.1 0.00 0.13 0.00 67 1012.3
20260904163008 28 262 0.0 11.3 0.00 0.13 0.00 70 1012.3
20260904161511 27 214 1.6 14.5 0.00 0.13 0.00 71 1012.4
20260904160006 28 243 1.6 8.0 0.00 0.13 0.00 70 1012.7
20260904154506 27 242 3.2 12.9 0.00 0.13 0.00 69 1012.6
20260904153003 27 48 0.0 8.0 0.00 0.13 0.00 71 1012.5
20260904151503 27 266 0.0 16.1 0.00 0.13 0.00 72 1012.6
20260904150002 27 37 0.0 12.9 0.00 0.13 0.00 74 1012.5
20260904144611 26 242 1.6 12.9 0.00 0.13 0.00 73 1012.4
20260904143101 26 269 4.8 12.9 0.00 0.13 0.00 74 1012.5
20260904141602 26 330 1.6 9.7 0.00 0.13 0.00 76 1012.4
20260904140054 26 324 0.0 11.3 0.00 0.13 0.00 77 1012.3
20260904134552 25 225 1.6 11.3 0.00 0.13 0.00 78 1012.5
20260904133057 25 202 0.0 8.0 0.00 0.13 0.00 81 1012.5
20260904131547 24 46 1.6 17.7 0.00 0.13 0.00 81 1012.5
20260904130045 24 24 0.0 11.3 0.00 0.13 0.00 83 1012.8
20260904124543 23 270 1.6 16.1 0.00 0.13 0.00 85 1012.6
20260904123042 23 284 4.8 22.5 0.00 0.13 0.00 85 1012.6
20260904121541 23 275 3.2 19.3 0.00 0.13 0.00 86 1012.8
20260904120042 22 313 1.6 11.3 0.00 0.13 0.00 87 1012.7
20260904114540 22 267 1.6 16.1 0.00 0.13 0.00 88 1012.6
20260904113038 22 236 1.6 17.7 0.00 0.13 0.00 89 1012.5
20260904111536 22 22 3.2 12.9 0.00 0.13 0.00 89 1012.3
20260904110034 22 266 6.4 16.1 0.00 0.13 0.00 89 1012.1
20260904104534 22 284 3.2 17.7 0.00 0.15 0.00 89 1011.7
20260904103031 22 217 1.6 14.5 0.00 0.15 0.00 89 1011.5
20260904101530 22 29 3.2 14.5 0.00 0.15 0.00 89 1011.4
20260904100030 22 285 1.6 12.9 0.00 0.15 0.00 88 1011.2
20260904094528 22 247 1.6 12.9 0.00 0.23 0.00 88 1011.5
20260904093030 22 261 0.0 8.0 0.00 0.23 0.00 89 1011.5
20260904091544 22 319 0.0 6.4 0.00 0.23 0.00 88 1011.7
20260904090025 22 30 3.2 14.5 0.00 0.23 0.00 88 1011.7
20260904084525 23 266 1.6 12.9 0.00 1.22 0.00 89 1011.6
20260904083029 23 263 3.2 14.5 0.00 1.22 0.00 90 1011.6